Flag for U.S.A. Weather past 2 weeks in Lansing, Michigan, U.S.A.

Now
19 °F

Ice fog.


Feels Like: 19 °F
Forecast: 22 / 34 °F
Wind: No wind

Location: Capital City Airport

Current Time: Dec 20, 2014 at 1:43:40 AM

Latest Report: Dec 20, 2014 at 12:53 AM


Visibility: 6 mi

Pressure: 30.32 "Hg

Humidity: 92%

Dew point: 17 °F

Location of LansingLocation

Historic Weather in Lansing — Graph

°F

Lansing temperature yesterday

Maximum temperature yesterday: 28 °F (at 3:53 PM)
Minimum temperature yesterday: 19 °F (at 9:53 PM)
Average temperature yesterday: 25 °F

Past Weeks' High & Low Weather Summary

 TemperatureHumidityPressure
High51 °F (Dec 15, 3:53 PM)100% (Dec 9, 1:53 AM)30.73 "Hg (Dec 9, 1:53 AM)
Low19 °F (Dec 7, 7:53 AM)35% (Dec 7, 2:53 PM)29.66 "Hg (Dec 16, 8:03 AM)
Average34 °F81%30.19 "Hg
* Reported Dec 5 12:53 AM — Dec 20 12:53 AM, Lansing, Weather by CustomWeather, © 2014

Note: Actual official high and low records may vary slightly from our data, if they occured in-between our weather recording intervals... More about our weather records

Advertising

Lansing weather history for previous 24 hours

 ConditionsComfort  
Time TempWeatherWind HumidityBarometerVisibility
12:53 AM
Dec 20
19 °FIce fog.No wind92%30.32 "Hg6 mi
11:53 PM
Dec 19
20 °FIce fog.No wind89%30.32 "Hg6 mi
10:53 PM20 °FClear.No wind89%30.31 "Hg8 mi
9:53 PM19 °FClear.No wind88%30.31 "Hg7 mi
8:53 PM21 °FClear.3 mph88%30.33 "Hg9 mi
7:53 PM24 °FClear.5 mph84%30.37 "Hg10 mi
6:53 PM24 °FPassing clouds.3 mph77%30.35 "Hg10 mi
5:53 PM25 °FClear.6 mph78%30.33 "Hg10 mi
4:53 PM26 °FScattered clouds.5 mph74%30.31 "Hg10 mi
3:53 PM28 °FOvercast.3 mph72%30.30 "Hg10 mi
2:53 PM27 °FScattered clouds.3 mph72%30.28 "Hg10 mi
1:53 PM27 °FScattered clouds.6 mph78%30.30 "Hg10 mi
12:53 PM26 °FOvercast.3 mph77%30.31 "Hg10 mi
11:53 AM26 °FOvercast.3 mph74%30.31 "Hg10 mi
10:53 AM25 °FOvercast.7 mph78%30.31 "Hg10 mi
9:53 AM26 °FOvercast.6 mph74%30.31 "Hg10 mi
8:53 AM25 °FOvercast.5 mph81%30.31 "Hg10 mi
7:53 AM25 °FOvercast.6 mph85%30.30 "Hg10 mi
6:53 AM26 °FOvercast.7 mph81%30.28 "Hg10 mi
5:53 AM26 °FOvercast.5 mph84%30.27 "Hg10 mi
4:53 AM26 °FOvercast.6 mph88%30.26 "Hg10 mi
3:53 AM27 °FMostly cloudy.6 mph85%30.25 "Hg10 mi
2:53 AM27 °FOvercast.5 mph89%30.25 "Hg10 mi
1:53 AM27 °FOvercast.6 mph89%30.23 "Hg10 mi
Weather by CustomWeather, © 2014

See weather overviewHow to use our weather pages